Location: Frydek-Mistek
(49.6830°N, 18.3330°E)
Time: 05:09:17
(UTC+02:00)

ISS - Pass Details

Date: 25 May 2021
Orbit: 417 x 422 km, 51.6° (Epoch: 13 June)

Event Time Altitude Azimuth Distance (km) Brightness Sun altitude
Rises 23:49:35 0° 286° (WNW) 2,369 0.5 -18.2°
Reaches altitude 10° 23:51:57 10° 271° (W) 1,502 -0.8 -18.3°
Enters shadow 23:53:36 19° 245° (WSW) 1,059 -1.9 -18.3°
